Location: Clyde
(45.1830°S, 169.3170°E)
Time: 18:00:34
(UTC+12:00)

Cosmos 1356 - Pass Details

Date: 14 May 2021
Orbit: 437 x 442 km, 81.1° (Epoch: 16 June)

Event Time Altitude Azimuth Distance (km) Brightness Sun altitude
Rises 18:20:45 0° 6° (N) 2,424 7.3 -10.0°
Reaches altitude 10° 18:22:51 10° 13° (NNE) 1,564 6.2 -10.4°
Maximum altitude 18:26:05 41° 84° (E) 660 3.8 -10.9°
Drops below altitude 10° 18:29:23 10° 156° (SSE) 1,591 5.8 -11.5°
Enters shadow 18:30:16 - 159° (SSE) 1,947 6.3 -11.6°
